User: anonymous   Login
Location: Podia
(1.5569°N, 32.3469°E)
Time: 13:27:12
(UTC+00:00)
Language:

MINOTAUR IV R/B - Orbit

View from above orbital plane
View from above orbital plane
View from above satellite
View from above satellite

Ground track
Ground track

The orbit data is extracted from the following two-line orbital elements,

1 37228U 10062G   20218.08024795 0.00000040  00000-0  53789-5 0    03
2 37228  71.9647 223.7903 0015505 170.3671 189.6328 14.79134323    09
Epoch (UTC): 05 August 2020 01:55:33
Eccentricity: 0.0015505
inclination: 71.9647°
perigee height: 621 km
apogee height: 643 km
right ascension of ascending node: 223.7903°
argument of perigee: 170.3671°
revolutions per day: 14.79134323
mean anomaly at epoch: 189.6328°
orbit number at epoch: 0

The dashed part of the orbit path shows where the satellite is in the earth's shadow,  

DLR